Nur fliegen ist schöner ....

Willkommen beim Flugservice Bautzen GmbH

Wir sind eine nach europäischen Richtlinien zugelassene Flugschule und lizenziertes Luftfahrtunternehmen. Bei uns können sie nicht nur Rundflüge über die Oberlausitz oder Sachsen buchen, sondern in unserer Flugschule selber das Fliegen erlernen. Erfahrene Fluglehrer stehen Ihnen dabei zur Seite.

Wir bieten Ihnen außerdem spezielle Flüge zur Vermessung oder Fotoflüge für Luftbildaufnahmen an. In Zusammenarbeit mit dem Fallschirmsportclub Dresden und dem Cottbuser Fallschirmsportclub setzen wir am Flugplatz Bautzen und Neuhausen Fallschirmspringer ab.
Schauen Sie sich in Ruhe bei uns um und wenn Sie Fragen haben oder weitere Informationen benötigen, scheuen Sie sich nicht Kontakt mit uns aufzunehmen.

Gutscheine für Rundflüge und Tandemsprünge können Sie ganz leicht auch online in unserem Shop erwerben.

Terminkalender

Letzter Monat Februar 2020 Nächster Monat
Mo Di Mi Do Fr Sa So
week 5 1 2
week 6 3 4 5 6 7 8 9
week 7 10 11 12 13 14 15 16
week 8 17 18 19 20 21 22 23
week 9 24 25 26 27 28 29

Flugwetterinfo

[Quelle: ADDS]
METAR
EDDC 220320Z 23010KT CAVOK 05/M01 Q1023 =
EDDC 212300Z 2200/2224 22012KT CAVOK BECMG 2207/2209 24015G30KT PROB30 TEMPO 2211/2220 24020G35KT TEMPO 2222/2224 26020G35KT
TAF
EDDC 212300Z 2200/2224 22012KT CAVOK BECMG 2207/2209 24015G30KT PROB30 TEMPO 2211/2220 24020G35KT TEMPO 2222/2224 26020G35KT =
SR / SS: 06:02 / 16:28 UTC (EDAB Flugplatz Bautzen 2020-02-22)

Öffnungszeiten

des Flugplatzes Bautzen erfahren Sie hier:

flugplatz bautzen logo
Flugservice Bautzen GmbH, Kornmarkt 34, 02625 Bautzen  Telefon: +49 (3591) 211105, Telefax: +49 (3591) 274512, E-Mail:  flugservice(at)fsbautzen.de